This is the latest recevied weather packets stored in our database for station/object EA2KR-10. If no packets are shown the sender has not sent any weather packets the latest 10 day(s).
| Time | Temp. | Humidity | Pressure | Rain* | Wind** | Luminosity | Snow |
|---|---|---|---|---|---|---|---|
| 1777457740 | 17.22° C | 53% | 1021.5 hPa | - | - | - | - |
| 1777454136 | 16.11° C | 55% | 1021.3 hPa | - | - | - | - |
| 1777452336 | 16.11° C | 53% | 1021.5 hPa | - | - | - | - |
| 1777450541 | 16.67° C | 51% | 1021.1 hPa | - | - | - | - |
| 1777448736 | 16.67° C | 50% | 1020.9 hPa | - | - | - | - |
| 1777446936 | 16.11° C | 54% | 1020.8 hPa | - | - | - | - |
| 1777443335 | 14.44° C | 58% | 1020.3 hPa | - | - | - | - |
| 1777437937 | 15° C | 57% | 1020.2 hPa | - | - | - | - |
| 1777436134 | 16.11° C | 54% | 1020.3 hPa | - | - | - | - |
| 1777434338 | 15.56° C | 56% | 1020.4 hPa | - | - | - | - |
| 1777430735 | 17.22° C | 62% | 1020.6 hPa | - | - | - | - |
| 1777428934 | 16.67° C | 66% | 1020.7 hPa | - | - | - | - |
| 1777427136 | 16.67° C | 66% | 1020.8 hPa | - | - | - | - |
| 1777425338 | 16.67° C | 66% | 1021.1 hPa | - | - | - | - |
| 1777423534 | 16.67° C | 66% | 1021.1 hPa | - | - | - | - |
| 1777421734 | 16.67° C | 64% | 1021.2 hPa | - | - | - | - |
| 1777418140 | 17.78° C | 63% | 1021.4 hPa | - | - | - | - |
| 1777416340 | 17.78° C | 63% | 1021.7 hPa | - | - | - | - |
| 1777414540 | 17.78° C | 63% | 1021.8 hPa | - | - | - | - |
| 1777412740 | 17.22° C | 65% | 1021.7 hPa | - | - | - | - |
| 1777410940 | 17.78° C | 64% | 1021.6 hPa | - | - | - | - |
| 1777409140 | 17.78° C | 66% | 1021.5 hPa | - | - | - | - |
| 1777407340 | 17.78° C | 65% | 1021.3 hPa | - | - | - | - |
| 1777405539 | 17.78° C | 67% | 1021.4 hPa | - | - | - | - |
| 1777403739 | 17.78° C | 67% | 1021.3 hPa | - | - | - | - |
* Rain since midnight (hover to see other rain measurements)
** Current wind speed in m/s (hover to see current wind gust speed)